Weather History for KMHK - February, 2014

Change the Weather History Date:

Saturday, February 8, 2014

  Actual Average Record
Temperature  
Mean Temperature 22 °F 31 °F  
Max Temperature 28 °F 43 °F 70 °F (2015)
Min Temperature 16 °F 19 °F -14 °F (2004)
Degree Days  
Heating Degree Days 43 34  
Month to date heating degree days 412 275  
Since 1 July heating degree days 3863 3541  
Cooling Degree Days 0 0  
Month to date cooling degree days 0 0  
Year to date cooling degree days 0 0  
Moisture  
Dew Point 18 °F    
Average Humidity 82    
Maximum Humidity 88    
Minimum Humidity 75    
Precipitation  
Precipitation T in 0.03 in 0.33 in (2001)
Month to date precipitation 0.14 0.27  
Year to date precipitation 0.45 0.92  
Sea Level Pressure  
Sea Level Pressure 30.14 in    
Wind  
Wind Speed 5 mph (SSW)    
Max Wind Speed 15 mph    
Max Gust Speed 20 mph    
Visibility 6 miles    
Events      
T = Trace of Precipitation, MM = Missing Value Source: NWS Daily Summary

Daily Weather History Graph

Daily Weather History Graph

Search for Another Location

Airport or City:

Trip Planner

Search our weather history database for the weather conditions in past years. The results will help you decide how hot, cold, wet, or windy it might be!

Date:

Astronomy

Feb. 08, 2014 Rise Set
Actual Time 7:26 AM CST 5:55 PM CST
Civil Twilight 6:58 AM CST 6:23 PM CST
Nautical Twilight 6:27 AM CST 6:55 PM CST
Astronomical Twilight 5:55 AM CST 7:26 PM CST
Moon 12:51 PM CST (2/8) 2:39 AM CST (2/8)
Length of Visible Light 11h 25m
Length of Day
10h 29m
Waxing Gibbous, 69% of the Moon is Illuminated
Feb 8
Waxing Gibbous
Feb 14
Full
Feb 22
Last Quarter
Mar 1
New
Mar 8
First Quarter

Hourly Weather History & Observations

Time (CST) Temp. Windchill Dew Point Humidity Pressure Visibility Wind Dir Wind Speed Gust Speed Precip Events Conditions
12:25 AM 16.0 °F 7.4 °F 10.9 °F 81% 30.17 in 6.0 mi SSW 5.8 mph - N/A   Haze
12:52 AM 16.0 °F 8.8 °F 10.9 °F 81% 30.22 in 5.0 mi South 4.6 mph - 0.00 in   Haze
1:52 AM 16.0 °F 8.8 °F 12.0 °F 84% 30.21 in 5.0 mi South 4.6 mph - N/A   Overcast
2:16 AM 16.0 °F 7.4 °F 12.9 °F 88% 30.13 in 6.0 mi South 5.8 mph - N/A   Overcast
2:52 AM 17.1 °F 10.0 °F 12.9 °F 84% 30.19 in 7.0 mi South 4.6 mph - N/A   Overcast
3:52 AM 17.1 °F 11.7 °F 12.9 °F 84% 30.16 in 7.0 mi South 3.5 mph - N/A   Overcast
4:52 AM 18.0 °F - 14.0 °F 84% 30.17 in 7.0 mi Calm Calm - N/A   Overcast
5:52 AM 19.0 °F 11.1 °F 14.0 °F 81% 30.17 in 7.0 mi SW 5.8 mph - N/A   Overcast
6:09 AM 19.0 °F 12.3 °F 14.0 °F 81% 30.12 in 7.0 mi SW 4.6 mph - N/A   Overcast
6:42 AM 19.0 °F 12.3 °F 15.1 °F 85% 30.10 in 7.0 mi South 4.6 mph - N/A   Overcast
6:52 AM 19.0 °F 10.0 °F 15.1 °F 85% 30.14 in 7.0 mi South 6.9 mph - N/A   Overcast
7:16 AM 19.0 °F 12.3 °F 15.1 °F 85% 30.09 in 7.0 mi SSE 4.6 mph - N/A   Overcast
7:52 AM 19.9 °F 12.1 °F 16.0 °F 85% 30.13 in 5.0 mi South 5.8 mph - N/A   Overcast
8:52 AM 21.9 °F 13.4 °F 17.1 °F 82% 30.14 in 5.0 mi SSW 6.9 mph - N/A   Haze
9:52 AM 24.1 °F 15.2 °F 19.0 °F 81% 30.17 in 5.0 mi SW 8.1 mph - N/A   Haze
10:52 AM 25.0 °F 16.3 °F 19.9 °F 81% 30.16 in 5.0 mi SSW 8.1 mph - N/A   Haze
11:52 AM 26.1 °F 15.0 °F 21.0 °F 81% 30.15 in 5.0 mi SW 12.7 mph - N/A   Haze
12:52 PM 27.0 °F 17.3 °F 21.0 °F 78% 30.11 in 5.0 mi WSW 10.4 mph - N/A   Haze
1:52 PM 28.0 °F 18.6 °F 21.9 °F 78% 30.09 in 5.0 mi SW 10.4 mph - N/A   Haze
2:52 PM 28.0 °F 18.6 °F 23.0 °F 81% 30.08 in 5.0 mi SW 10.4 mph - N/A   Haze
3:26 PM 28.0 °F 20.8 °F 21.9 °F 78% 30.04 in 6.0 mi Variable 6.9 mph - N/A   Haze
3:49 PM 28.4 °F 22.2 °F 23.0 °F 80% 30.04 in 5.0 mi SW 5.8 mph - N/A   Haze
3:52 PM 28.0 °F 20.8 °F 23.0 °F 81% 30.08 in 5.0 mi SW 6.9 mph - N/A   Haze
4:52 PM 28.0 °F 22.8 °F 23.0 °F 81% 30.11 in 5.0 mi West 4.6 mph - N/A   Haze
5:52 PM 28.0 °F - 23.0 °F 81% 30.11 in 5.0 mi Calm Calm - N/A   Haze
6:52 PM 28.0 °F - 23.0 °F 81% 30.14 in 6.0 mi Calm Calm - N/A   Haze
7:52 PM 27.0 °F - 23.0 °F 85% 30.15 in 5.0 mi Calm Calm - N/A   Overcast
8:52 PM 27.0 °F 23.0 °F 23.0 °F 85% 30.17 in 5.0 mi North 3.5 mph - N/A   Overcast
9:52 PM 26.1 °F 21.9 °F 21.9 °F 84% 30.17 in 5.0 mi NNE 3.5 mph - N/A   Overcast
10:52 PM 26.1 °F - 21.9 °F 84% 30.19 in 5.0 mi Calm Calm - N/A   Overcast
11:24 PM 26.1 °F 21.9 °F 21.9 °F 84% 30.17 in 5.0 mi WNW 3.5 mph - N/A   Overcast
11:52 PM 26.1 °F - 21.9 °F 84% 30.20 in 5.0 mi Calm Calm - N/A   Overcast